TimeMST,TemperatureF,Dew PointF,Humidity,Sea Level PressureIn,VisibilityMPH,Wind Direction,Wind SpeedMPH,Gust SpeedMPH,PrecipitationIn,Events,Conditions,WindDirDegrees,DateUTC
1:53 AM,15.1,8.1,74,29.98,10.0,West,3.5,-,N/A,,Clear,260,2013-02-22 08:53:00
2:53 AM,15.1,6.1,68,29.97,10.0,WSW,5.8,-,N/A,,Clear,250,2013-02-22 09:53:00
3:53 AM,12.9,3.9,67,29.97,10.0,West,5.8,-,N/A,,Clear,280,2013-02-22 10:53:00
4:53 AM,17.1,6.1,62,29.96,10.0,WSW,3.5,-,N/A,,Clear,250,2013-02-22 11:53:00
5:53 AM,16.0,5.0,62,29.99,10.0,SW,6.9,-,N/A,,Clear,230,2013-02-22 12:53:00
6:53 AM,16.0,3.0,57,30.01,10.0,WSW,9.2,-,N/A,,Clear,250,2013-02-22 13:53:00
7:53 AM,18.0,6.1,60,30.02,10.0,West,5.8,-,N/A,,Scattered Clouds,260,2013-02-22 14:53:00
8:53 AM,25.0,9.0,51,29.99,10.0,NW,4.6,-,N/A,,Clear,310,2013-02-22 15:53:00
9:53 AM,28.9,9.0,43,29.98,10.0,NNE,5.8,-,N/A,,Mostly Cloudy,30,2013-02-22 16:53:00
10:53 AM,30.9,9.0,40,29.98,10.0,NE,4.6,-,N/A,,Mostly Cloudy,40,2013-02-22 17:53:00
11:53 AM,30.0,10.0,43,30.00,10.0,Calm,Calm,-,N/A,,Overcast,0,2013-02-22 18:53:00
12:53 PM,33.1,12.0,42,29.95,10.0,NNE,3.5,-,N/A,,Clear,30,2013-02-22 19:53:00
1:53 PM,30.9,12.0,46,29.93,10.0,ENE,5.8,-,N/A,,Clear,70,2013-02-22 20:53:00
2:53 PM,32.0,12.0,44,29.91,10.0,NNE,4.6,-,N/A,,Clear,30,2013-02-22 21:53:00
3:53 PM,32.0,12.0,44,29.89,10.0,Calm,Calm,-,N/A,,Clear,0,2013-02-22 22:53:00
4:53 PM,28.0,14.0,56,29.89,10.0,WNW,6.9,-,N/A,,Clear,290,2013-02-22 23:53:00
5:53 PM,21.9,12.0,66,29.90,10.0,West,4.6,-,N/A,,Clear,270,2013-02-23 00:53:00
6:53 PM,21.0,10.0,63,29.89,10.0,WSW,8.1,-,N/A,,Clear,250,2013-02-23 01:53:00
7:53 PM,21.0,10.0,63,29.86,10.0,WSW,6.9,-,N/A,,Clear,250,2013-02-23 02:53:00
8:53 PM,23.0,9.0,55,29.81,10.0,WSW,4.6,-,N/A,,Clear,250,2013-02-23 03:53:00
9:53 PM,21.0,9.0,60,29.79,10.0,WSW,6.9,-,N/A,,Clear,250,2013-02-23 04:53:00
10:53 PM,21.9,7.0,53,29.76,10.0,WSW,6.9,-,N/A,,Clear,250,2013-02-23 05:53:00
11:53 PM,23.0,6.1,48,29.73,10.0,WSW,4.6,-,N/A,,Clear,250,2013-02-23 06:53:00